Total_Precipitation_Accumulation
0.00 0.01 0.01 0.02 0.03 0.03 0.05 0.07 0.10 0.13 0.12 0.15 0.28 0.55 0.80 0.90 1.17 1.13 1.15 1.31 1.46 1.61 1.91 2.33 2.64 3.20 3.81 4.18 4.57 4.72 4.73 4.61 4.41 4.01 3.68 3.43 3.20 3.02 2.77 2.61 2.55 2.43 2.30 2.45
0.01 0.03 0.02 0.02 0.02 0.04 0.06 0.08 0.10 0.15 0.16 0.21 0.39 0.61 0.90 0.91 0.99 1.04 0.96 0.99 1.18 1.55 1.81 2.34 2.64 2.85 3.32 3.83 4.29 4.59 4.73 4.62 4.22 3.82 3.60 3.46 3.39 3.02 2.73 2.69 2.78 2.62 2.61 2.65
0.02 0.02 0.03 0.02 0.03 0.04 0.07 0.08 0.10 0.11 0.14 0.28 0.42 0.83 1.09 0.98 0.93 0.95 0.94 0.99 1.17 1.63 2.08 2.34 2.53 2.70 2.98 3.37 3.68 3.80 3.95 3.92 3.76 3.78 3.77 3.69 3.64 3.18 3.06 3.05 3.03 2.85 2.83 2.84
0.02 0.02 0.03 0.04 0.05 0.05 0.09 0.07 0.06 0.08 0.15 0.36 0.44 0.94 1.35 1.18 1.03 1.08 1.13 1.08 1.35 1.68 1.72 1.87 2.18 2.50 2.68 2.91 3.26 3.49 3.55 3.50 3.41 3.50 3.54 3.41 3.21 3.04 3.13 3.39 3.34 3.07 2.84 2.67
0.03 0.03 0.04 0.05 0.05 0.05 0.08 0.07 0.07 0.10 0.17 0.34 0.45 0.72 1.25 1.27 1.26 1.15 1.17 1.28 1.49 1.52 1.46 1.57 1.77 2.10 2.21 2.52 2.81 3.06 3.32 3.41 3.36 3.40 3.33 3.34 3.21 3.20 3.23 3.18 3.16 2.93 2.72 2.40
0.04 0.05 0.04 0.03 0.03 0.04 0.06 0.08 0.13 0.20 0.32 0.67 0.55 0.57 1.03 1.20 1.04 0.98 1.08 1.11 1.30 1.31 1.31 1.50 1.65 1.88 2.01 2.16 2.28 2.41 2.63 2.91 3.08 3.14 3.12 3.14 3.08 3.06 2.98 2.87 2.73 2.52 2.35 2.08
0.09 0.10 0.08 0.05 0.05 0.07 0.06 0.11 0.41 0.76 0.99 1.05 0.57 0.62 1.07 0.94 0.74 0.76 0.95 1.00 1.06 1.04 1.02 1.24 1.37 1.48 1.62 1.75 1.85 1.97 2.17 2.51 2.68 2.68 2.67 2.78 2.82 2.84 2.75 2.71 2.55 2.33 2.10 1.81
0.16 0.21 0.12 0.07 0.08 0.08 0.09 0.11 0.36 0.65 0.78 0.84 0.69 1.03 1.47 0.98 0.76 0.81 0.86 0.86 0.85 0.81 0.79 0.94 1.15 1.36 1.42 1.46 1.58 1.73 1.95 2.18 2.29 2.24 2.38 2.58 2.65 2.74 2.63 2.65 2.42 2.16 1.95 1.84
0.11 0.11 0.08 0.07 0.11 0.11 0.10 0.09 0.15 0.29 0.39 0.63 0.88 1.16 1.20 0.74 0.65 0.75 0.77 0.79 0.90 0.84 0.76 0.82 0.91 1.08 1.13 1.19 1.32 1.46 1.82 2.10 2.20 2.24 2.38 2.48 2.55 2.54 2.44 2.35 2.18 1.98 1.97 1.91
0.04 0.06 0.08 0.07 0.09 0.11 0.10 0.12 0.17 0.24 0.40 0.63 0.86 1.15 1.27 0.90 0.72 0.54 0.50 0.54 0.55 0.55 0.55 0.62 0.67 0.77 0.90 1.12 1.37 1.53 1.66 1.96 2.08 2.09 2.17 2.20 2.37 2.33 2.22 2.15 1.98 1.82 1.72 1.76
0.04 0.04 0.07 0.09 0.11 0.13 0.13 0.12 0.14 0.18 0.25 0.44 0.87 1.08 0.85 0.71 0.59 0.55 0.52 0.56 0.48 0.42 0.45 0.51 0.64 0.78 0.95 1.11 1.29 1.36 1.41 1.57 1.71 1.81 1.99 1.97 1.96 2.06 2.12 1.99 1.77 1.70 1.67 1.71
0.04 0.04 0.06 0.13 0.18 0.16 0.14 0.12 0.14 0.18 0.19 0.28 0.50 0.71 0.56 0.62 0.61 0.53 0.56 0.62 0.61 0.57 0.51 0.55 0.73 0.89 1.02 1.17 1.20 1.19 1.24 1.38 1.53 1.70 1.90 1.98 1.98 2.02 2.01 1.88 1.70 1.66 1.67 1.74
0.05 0.06 0.11 0.28 0.40 0.27 0.17 0.13 0.13 0.14 0.12 0.20 0.42 0.66 0.46 0.41 0.50 0.66 0.90 1.07 0.87 0.69 0.63 0.73 0.82 0.85 0.88 0.97 1.08 1.05 1.04 1.20 1.38 1.60 1.94 2.10 2.10 2.04 1.96 1.79 1.58 1.54 1.59 1.70
0.08 0.06 0.10 0.30 0.43 0.36 0.26 0.17 0.13 0.11 0.14 0.18 0.26 0.53 0.49 0.47 0.52 0.68 0.87 0.82 0.81 0.76 0.71 0.81 0.82 0.88 0.87 0.84 0.93 0.92 0.96 1.07 1.29 1.50 1.70 1.80 1.72 1.67 1.68 1.60 1.51 1.47 1.51 1.58
0.12 0.08 0.07 0.12 0.22 0.24 0.24 0.22 0.18 0.15 0.12 0.22 0.26 0.37 0.46 0.48 0.61 0.79 0.96 0.96 0.89 0.73 0.65 0.73 0.73 0.77 0.80 0.81 0.89 0.84 0.83 0.88 1.01 1.19 1.31 1.45 1.46 1.44 1.43 1.48 1.52 1.55 1.64 1.64
0.18 0.18 0.14 0.16 0.19 0.24 0.27 0.25 0.19 0.13 0.12 0.16 0.24 0.38 0.50 0.57 0.68 0.76 0.73 0.67 0.61 0.55 0.46 0.44 0.60 0.69 0.65 0.65 0.69 0.64 0.69 0.82 0.97 1.06 1.17 1.37 1.51 1.54 1.54 1.57 1.65 1.70 1.70 1.70
0.24 0.28 0.26 0.25 0.25 0.25 0.34 0.33 0.24 0.15 0.14 0.20 0.32 0.49 0.65 0.56 0.58 0.66 0.64 0.62 0.58 0.56 0.41 0.34 0.42 0.58 0.57 0.57 0.59 0.68 0.81 0.95 1.06 1.20 1.33 1.51 1.62 1.71 1.72 1.68 1.78 1.74 1.74 1.79
0.40 0.41 0.33 0.31 0.43 0.52 0.37 0.30 0.29 0.29 0.26 0.28 0.40 0.42 0.56 0.57 0.63 0.75 0.73 0.72 0.57 0.50 0.41 0.36 0.37 0.42 0.49 0.55 0.63 0.77 1.05 1.26 1.30 1.45 1.63 1.73 1.84 1.81 1.78 1.78 1.80 1.86 1.93 1.96
0.33 0.49 0.47 0.47 0.61 0.52 0.45 0.32 0.36 0.41 0.54 0.56 0.64 0.61 0.56 0.56 0.67 0.76 0.66 0.58 0.59 0.48 0.44 0.43 0.42 0.48 0.58 0.63 0.68 0.89 1.11 1.35 1.48 1.54 1.67 1.85 1.95 1.98 2.00 2.02 1.97 2.02 2.09 2.04
0.35 0.50 0.62 0.59 0.74 0.73 0.61 0.48 0.47 0.58 1.03 0.86 0.79 0.81 0.69 0.65 0.78 0.87 0.81 0.73 0.66 0.59 0.55 0.54 0.56 0.64 0.79 0.89 0.93 1.08 1.19 1.33 1.50 1.58 1.70 1.88 2.10 2.16 2.18 2.31 2.37 2.30 2.25 2.12
0.64 0.72 0.75 0.74 0.80 0.87 0.74 0.68 0.71 1.11 1.39 1.08 0.91 0.87 0.85 0.96 0.97 0.91 0.81 0.81 0.75 0.64 0.66 0.64 0.66 0.78 0.98 1.12 1.18 1.28 1.41 1.51 1.53 1.62 1.75 1.95 2.13 2.22 2.28 2.42 2.49 2.45 2.41 2.39
0.84 0.89 0.88 0.89 1.08 1.24 0.87 0.84 1.24 1.50 1.26 1.25 1.21 1.13 1.02 0.99 0.95 0.90 0.82 0.80 0.75 0.72 0.77 0.77 0.81 0.95 1.18 1.35 1.31 1.36 1.42 1.47 1.52 1.55 1.66 1.79 1.96 2.00 2.09 2.33 2.40 2.47 2.49 2.45
0.92 1.00 1.08 1.20 1.32 1.22 1.02 1.10 1.26 1.39 1.55 1.46 1.34 1.35 1.16 1.11 1.02 0.93 0.85 0.82 0.80 0.76 0.82 0.84 0.90 1.10 1.34 1.49 1.51 1.57 1.46 1.52 1.56 1.59 1.72 1.86 1.94 2.01 2.13 2.21 2.22 2.29 2.36 2.32
1.07 0.94 1.13 1.37 1.41 1.33 1.19 1.06 1.00 1.12 1.24 1.22 1.22 1.21 1.17 1.13 1.07 0.99 0.88 0.81 0.81 0.81 0.76 0.80 0.89 0.98 1.07 1.27 1.45 1.54 1.58 1.63 1.65 1.67 1.72 1.80 1.91 1.93 1.97 2.09 2.17 2.27 2.38 2.45
1.26 1.12 1.33 1.62 1.53 1.40 1.41 1.30 1.18 1.25 1.31 1.22 1.16 1.13 1.13 1.11 1.06 0.92 0.89 0.88 0.85 0.83 0.78 0.80 0.88 0.89 0.94 1.04 1.16 1.25 1.34 1.47 1.53 1.57 1.61 1.66 1.69 1.77 1.85 1.89 1.97 1.99 2.10 2.11
1.36 1.33 1.63 1.96 1.71 1.55 1.52 1.40 1.28 1.35 1.32 1.36 1.42 1.39 1.17 1.06 1.15 1.08 0.95 0.85 0.84 0.85 0.85 0.86 0.87 0.85 0.88 0.94 1.11 1.22 1.31 1.45 1.56 1.63 1.65 1.58 1.54 1.60 1.65 1.68 1.67 1.67 1.63 1.63